This is the latest recevied weather packets stored in our database for station/object KA3BQE-13. If no packets are shown the sender has not sent any weather packets the latest 1 day(s).
| Time | Temp. | Humidity | Pressure | Rain* | Wind** | Luminosity | Snow |
|---|---|---|---|---|---|---|---|
| 1778012168 | 10° C | 85% | 1012.1 hPa | 0 mm | 0.89 m/s, 229° | 228 W/m² | - |
| 1778011865 | 10.56° C | 88% | 1012.2 hPa | 0.51 mm | 0 m/s | 228 W/m² | - |
| 1778011557 | 9.44° C | 87% | 1012.3 hPa | 0.51 mm | 0.45 m/s, 6° | 258 W/m² | - |
| 1778011254 | 9.44° C | 85% | 1012.3 hPa | 0 mm | 0 m/s | 164 W/m² | - |
| 1778010950 | 9.44° C | 88% | 1012.4 hPa | 0.51 mm | 0.45 m/s, 333° | 170 W/m² | - |
| 1778010648 | 9.44° C | 89% | 1012.3 hPa | 1.27 mm | 0.45 m/s, 310° | 212 W/m² | - |
| 1778010345 | 9.44° C | 88% | 1012.2 hPa | 1.27 mm | 1.34 m/s, 355° | 157 W/m² | - |
| 1778010040 | 9.44° C | 88% | 1012.2 hPa | 1.27 mm | 0 m/s | 149 W/m² | - |
| 1778009738 | 9.44° C | 88% | 1012.4 hPa | 1.27 mm | 0 m/s | 133 W/m² | - |
| 1778009435 | 9.44° C | 86% | 1012.3 hPa | 1.27 mm | 0.45 m/s, 12° | 133 W/m² | - |
| 1778009133 | 10° C | 85% | 1012.5 hPa | 1.27 mm | 0.89 m/s, 0° | 121 W/m² | - |
| 1778008831 | 10° C | 83% | 1012.3 hPa | 1.78 mm | 0.45 m/s, 340° | 108 W/m² | - |
| 1778008529 | 10.56° C | 82% | 1012.3 hPa | 0.51 mm | 0.45 m/s, 7° | 96 W/m² | - |
| 1778008226 | 11.11° C | 83% | 1012.2 hPa | 0.51 mm | 0.45 m/s, 297° | 88 W/m² | - |
| 1778007936 | 11.11° C | 82% | 1012.3 hPa | 0.51 mm | 0.45 m/s, 353° | 96 W/m² | - |
| 1778007622 | 11.67° C | 80% | 1012.3 hPa | 0 mm | 0 m/s | 102 W/m² | - |
| 1778007319 | 11.11° C | 77% | 1012.3 hPa | 0 mm | 0.45 m/s, 249° | 108 W/m² | - |
| 1778007015 | 11.67° C | 78% | 1012.4 hPa | 0 mm | 0 m/s | 111 W/m² | - |
| 1778006713 | 11.67° C | 77% | 1012.3 hPa | 0 mm | 0.45 m/s, 221° | 124 W/m² | - |
| 1778006409 | 11.67° C | 76% | 1012 hPa | 0 mm | 0 m/s | 141 W/m² | - |
| 1778006106 | 11.67° C | 75% | 1011.9 hPa | 0 mm | 1.79 m/s, 328° | 164 W/m² | - |
| 1778005803 | 11.67° C | 73% | 1012 hPa | 0 mm | 1.79 m/s, 338° | 179 W/m² | - |
| 1778005500 | 12.22° C | 72% | 1012 hPa | 0 mm | 1.79 m/s, 5° | 196 W/m² | - |
| 1778005195 | 12.22° C | 74% | 1012 hPa | 0 mm | 0.45 m/s, 302° | 217 W/m² | - |
| 1778004888 | 12.22° C | 73% | 1012 hPa | 0 mm | 0.89 m/s, 275° | 243 W/m² | - |
* Rain latest hour (hover to see other rain measurements)
** Current wind speed in m/s (hover to see current wind gust speed)